CAPE
440 245 302 194 0 0 0 0 0 0 11 0 0 16 53 51 26 1 351 680 471 892 1044 991 873 769 537 357 241 28 150 121 1 1 0 1 3 6 185 201 62 8 6 3 0 0 0 0 0
596 461 456 10 0 0 0 0 0 0 0 0 0 54 77 69 130 644 847 790 490 952 1042 1031 897 677 517 448 350 24 316 40 6 1 0 3 3 2 3 85 14 7 3 1 0 0 0 0 0
310 433 71 15 0 0 0 0 0 0 6 15 0 7 153 289 497 559 849 750 615 898 1072 1111 799 644 608 542 334 38 344 68 30 0 0 1 7 5 6 2 4 0 0 1 0 0 0 0 0
190 186 100 1 0 0 0 0 0 0 0 0 0 0 35 216 398 534 893 649 523 831 1113 946 768 700 626 491 104 10 489 254 99 0 0 1 2 4 6 5 0 0 2 1 0 0 0 0 0
283 156 31 1 0 0 0 0 0 0 0 0 1 0 0 0 37 619 856 467 379 788 1078 923 802 750 563 268 33 3 256 565 280 12 0 0 2 2 4 5 3 3 3 0 0 0 0 0 0
113 148 63 0 0 0 0 0 0 0 0 30 0 65 30 0 13 387 707 408 622 800 1085 906 789 675 533 123 18 3 1 737 475 77 0 0 1 2 3 4 4 5 2 1 0 0 0 0 0
144 60 35 1 0 0 0 0 0 0 0 24 90 76 109 66 2 410 595 673 824 993 995 985 812 688 418 47 0 0 0 447 728 161 11 0 0 0 0 2 2 2 0 0 0 0 0 0 0
152 82 2 7 0 0 0 0 0 0 124 119 242 126 20 53 226 209 784 814 906 816 888 891 788 627 244 0 0 1 41 226 592 248 22 0 0 0 0 0 0 0 0 0 0 0 0 0 0
211 139 4 6 0 0 1 0 6 56 233 259 245 340 220 166 286 119 509 617 764 954 880 889 697 526 121 0 0 182 257 152 289 379 13 0 0 0 0 0 0 0 0 0 0 0 0 0 0
269 157 5 0 16 0 25 0 27 132 246 384 521 587 313 210 431 310 169 327 463 714 834 810 632 417 103 0 0 136 181 152 270 226 29 0 0 0 0 0 0 0 0 0 0 0 0 0 0
139 135 9 22 37 66 108 16 31 94 99 255 410 485 301 253 470 347 345 229 309 408 595 758 579 448 128 25 0 0 73 83 187 136 24 7 0 0 4 0 0 0 0 0 0 0 0 0 0
55 32 48 113 86 118 86 3 164 108 50 120 615 844 455 437 673 545 486 164 41 22 375 544 654 472 271 61 10 0 0 0 0 21 10 0 0 0 0 0 0 0 0 0 0 0 0 0 0
1 11 75 105 178 180 138 56 48 8 44 300 542 755 521 736 880 606 367 177 135 162 422 466 603 606 388 148 66 41 13 0 0 0 0 0 0 0 0 0 0 0 0 0 0 0 0 0 0
0 0 37 120 136 103 63 41 14 0 0 225 346 478 735 499 653 568 347 291 646 432 469 474 526 615 526 330 190 170 105 97 88 12 0 0 0 0 0 0 0 0 0 0 0 0 0 0 0
27 0 26 45 106 72 49 14 6 0 0 0 79 175 587 645 762 662 700 519 590 676 653 728 712 513 622 643 471 346 208 114 112 168 49 0 0 0 0 0 0 0 0 0 0 0 0 0 0
18 20 20 13 90 35 2 4 0 0 0 0 0 1 56 520 755 773 594 646 657 648 581 614 637 469 752 847 729 528 368 164 141 144 173 50 52 30 22 1 0 0 0 0 0 0 0 0 0
26 11 2 18 95 17 4 3 2 0 0 0 0 0 0 4 374 490 580 691 691 654 654 699 748 638 721 846 714 601 489 350 259 258 242 156 118 55 34 16 1 0 0 0 0 0 0 0 0
6 4 11 2 15 4 3 0 0 0 0 0 0 0 0 0 0 115 388 526 669 790 878 858 665 630 769 695 677 505 403 468 250 174 242 207 182 106 52 40 30 10 10 21 13 1 3 0 5
1 0 6 0 1 1 3 0 0 0 0 0 0 0 0 0 0 0 0 413 651 648 709 642 639 753 642 534 464 524 463 442 256 139 170 233 198 178 145 100 90 129 130 93 49 29 25 15 8
7 3 20 11 3 3 7 0 0 0 0 0 0 0 0 0 0 0 0 0 351 492 694 693 628 678 728 597 475 470 472 412 347 213 212 235 309 286 258 202 183 190 193 131 116 102 81 41 12
9 0 15 11 27 12 0 0 0 0 0 0 0 0 0 0 0 0 0 0 0 387 491 558 605 772 733 649 489 510 453 407 349 305 297 399 374 392 347 277 267 310 341 221 203 125 82 28 7
0 6 0 0 1 4 2 0 0 0 0 0 0 0 0 0 0 0 0 0 0 12 514 600 604 597 646 555 631 614 516 454 494 383 364 393 379 398 431 438 378 339 273 238 126 34 22 4 9
0 6 0 0 0 0 0 0 0 0 0 0 0 0 0 0 0 0 0 0 0 0 125 490 528 530 691 796 551 468 482 364 307 313 270 185 91 0 0 8 43 55 24 3 0 0 0 0 0
0 20 24 15 0 1 0 0 0 0 0 0 0 0 0 0 0 0 0 0 0 0 0 0 166 374 602 711 502 388 278 311 165 159 230 81 0 0 0 0 0 0 0 0 0 0 0 0 0
3 3 3 5 0 0 0 1 0 0 0 0 0 0 0 0 0 0 0 0 0 0 0 0 0 6 204 450 469 566 350 203 121 49 42 1 0 0 0 0 0 0 0 0 0 0 0 0 0
2 0 0 0 0 0 0 0 0 0 0 0 0 0 0 0 0 0 0 0 0 0 0 0 0 0 0 6 109 173 247 147 30 3 4 0 3 3 0 0 0 0 0 0 0 0 0 0 0
0 0 0 0 0 0 0 0 0 0 0 0 0 0 0 0 0 0 0 0 0 0 0 0 0 0 0 0 0 0 4 76 12 0 0 0 0 0 0 0 0 0 0 0 0 0 0 0 0
0 0 0 0 0 0 0 0 0 0 0 0 0 0 0 0 0 0 0 0 0 0 0 0 0 0 0 0 0 0 0 0 0 0 0 0 0 0 0 0 0 0 0 0 0 0 0 0 0
0 0 0 0 0 0 0 0 0 0 0 0 0 0 0 0 0 0 0 0 0 0 0 0 0 0 0 0 0 0 0 0 0 0 0 0 0 0 0 0 0 0 0 0 0 0 0 0 0
0 0 0 0 0 0 0 0 0 0 0 0 0 0 0 0 0 0 0 0 0 0 0 0 0 0 0 0 0 0 0 0 0 0 0 0 0 0 0 0 0 0 0 0 0 0 0 0 0
CIN
-50 -113 -101 -107 0 0 0 0 0 -1 -18 0 0 -40 -59 -110 -80 -13 -204 -130 -124 -38 -5 -1 0 0 -3 -20 -43 -216 -84 -109 -3 0 0 0 0 0 -78 -65 -124 0 0 0 0 0 0 0 0
-23 -44 -42 -116 0 0 0 0 0 0 0 0 -3 -46 -65 -68 -160 -108 -64 -75 -121 -12 0 0 -2 -1 -3 -4 -15 -185 -26 -159 -95 0 0 0 0 0 0 -102 -1 0 0 0 0 0 0 0 0
-63 -28 -56 -47 0 0 0 0 0 0 -44 -17 0 -109 -75 -31 -64 -64 -56 -57 -73 -16 -1 0 -2 -5 -2 -2 -12 -126 -9 -94 -154 0 0 0 0 0 0 0 -1 0 0 0 0 0 0 0 0
-65 -41 -41 -11 0 0 0 0 0 0 0 0 0 0 -124 -66 -21 -60 -39 -65 -70 -22 -1 -1 -4 -6 -7 -7 -60 -157 -1 -25 -88 0 0 0 0 0 0 0 0 0 0 0 0 0 0 0 0
-42 -33 -18 -1 0 0 0 0 0 0 0 0 -8 -21 0 0 -143 -31 -37 -57 -77 -12 -1 -2 -3 -7 -17 -30 -113 -59 -25 -9 -32 -84 0 0 0 0 0 0 0 0 0 0 0 0 0 0 0
-18 -11 -7 0 0 0 0 0 0 0 0 -23 0 -100 -84 0 -12 -13 -27 -49 -44 -14 -1 -3 -6 -8 -21 -84 -116 -120 -55 -8 -22 -108 0 0 0 0 0 0 0 0 0 0 0 0 0 0 0
-5 -6 -17 -26 0 0 0 0 0 0 0 -19 -90 -83 -111 -134 -110 -36 -39 -20 -36 -19 -5 -3 -7 -7 -26 -135 0 0 0 -29 -16 -67 -190 0 0 0 0 0 0 0 0 0 0 0 0 0 0
-7 -3 -22 -68 0 0 0 0 0 -1 -54 -125 -116 -59 -103 -164 -167 -76 -15 -12 -27 -39 -30 -5 -10 -19 -55 0 0 -5 -146 -75 -34 -64 -224 0 0 0 0 0 0 0 0 0 0 0 0 0 0
-2 0 -20 -61 -4 0 -32 0 -156 -155 -92 -142 -132 -115 -147 -147 -125 -133 -21 -19 -14 -14 -35 -30 -18 -33 -130 0 0 -120 -91 -115 -78 -61 -189 0 0 0 0 0 0 0 0 0 0 0 0 0 0
0 0 -14 0 -59 0 -104 -19 -62 -74 -71 -90 -100 -138 -128 -130 -106 -61 -102 -25 -12 -15 -15 -40 -35 -61 -165 0 0 -158 -148 -156 -113 -112 -196 0 0 0 0 0 0 0 0 0 0 0 0 0 0
-10 -1 -13 -40 -37 -102 -98 -99 -98 -53 -55 -86 -54 -103 -155 -144 -81 -149 -114 -101 -75 -15 -15 -41 -66 -58 -157 -256 0 0 -211 -205 -167 -175 -223 -276 0 0 -254 0 0 0 0 0 0 0 0 0 0
-2 -8 -12 -13 -49 -82 -115 -157 -53 -67 -74 -120 -108 -93 -178 -108 -86 -104 -119 -121 -160 -119 -25 -18 -50 -100 -125 -222 -295 0 0 0 0 -223 -295 0 0 0 0 0 0 0 0 0 0 0 0 0 0
-3 -9 -26 -9 -26 -64 -93 -98 -44 -90 -154 -148 -140 -89 -54 -61 -63 -82 -114 -117 -122 -87 -48 -23 -24 -69 -133 -189 -222 -236 -115 0 0 0 0 0 0 0 0 0 0 0 0 0 0 0 0 0 0
0 0 -45 -22 -25 -35 -20 -47 -70 0 0 -118 -136 -123 -76 -72 -60 -50 -86 -61 -33 -74 -13 -102 -35 -43 -91 -134 -173 -170 -195 -201 -205 -221 0 0 0 0 0 0 0 0 0 0 0 0 0 0 0
-6 0 -43 -27 -24 -8 -48 -31 -59 0 0 0 -125 -136 -89 -80 -46 -54 -59 -70 -58 -32 -33 -44 -50 -25 -56 -79 -103 -123 -149 -192 -210 -170 -245 0 0 0 0 0 0 0 0 0 0 0 0 0 0
-6 -1 -8 -19 -22 -16 -7 0 -35 0 0 0 0 -54 -152 -67 -47 -32 -57 -61 -55 -35 -49 -41 -72 -88 -26 -41 -60 -83 -106 -139 -165 -178 -173 -254 -223 -231 -216 -33 0 0 0 0 0 0 0 0 0
-3 -1 -6 -4 -8 -5 -8 0 -31 0 0 0 0 0 0 -87 -83 -46 -48 -36 -47 -46 -56 -61 -32 -31 -30 -45 -56 -54 -48 -81 -112 -111 -120 -159 -140 -180 -180 -201 -51 0 0 0 0 0 0 0 0
-1 -2 -23 -5 -1 -9 0 0 0 0 0 0 0 0 0 0 0 -124 -51 -61 -46 -43 -40 -46 -36 -33 -33 -33 -37 -33 -31 -43 -105 -134 -100 -102 -89 -104 -137 -142 -145 -179 -164 -122 -87 -2 -11 -11 -10
-2 0 -24 -8 -8 -15 -1 0 -12 0 0 0 0 0 0 0 0 0 -1 -48 -61 -53 -47 -59 -44 -35 -35 -48 -43 -28 -28 -42 -64 -99 -89 -72 -65 -61 -71 -88 -89 -81 -63 -61 -72 -52 -55 -66 -11
-11 -13 -14 -12 0 0 0 0 0 0 0 0 0 0 0 0 0 0 0 0 -51 -61 -59 -39 -49 -47 -42 -54 -57 -36 -34 -32 -34 -39 -35 -34 -20 -29 -35 -49 -51 -46 -37 -41 -35 -21 -15 -48 -30
-36 0 -36 -41 -1 -1 -1 0 0 0 0 0 0 0 0 0 0 0 0 0 -16 -55 -68 -64 -77 -71 -50 -50 -54 -43 -46 -42 -33 -28 -23 -18 -25 -19 -30 -40 -36 -22 -18 -13 -12 -26 -20 -47 -25
-3 -18 0 0 0 -1 -2 0 0 0 0 0 0 0 0 0 0 0 0 0 0 -77 -80 -54 -43 -43 -48 -67 -48 -37 -38 -46 -36 -33 -37 -37 -48 -36 -34 -35 -30 -30 -33 -27 -52 -86 -80 -12 -65
0 -20 0 0 0 0 0 0 0 0 0 0 0 0 0 0 0 0 0 0 0 0 -118 -77 -60 -47 -58 -71 -55 -44 -33 -49 -54 -56 -55 -95 -149 0 0 -187 -157 -140 -163 -176 0 0 0 0 0
0 -22 -15 -15 0 -2 0 0 0 0 0 0 0 0 0 0 0 0 0 0 0 0 0 0 -142 -90 -86 -65 -46 -37 -27 -52 -47 -66 -114 -175 0 0 0 0 0 0 0 0 0 0 0 0 0
-24 -8 -2 -6 0 0 0 -19 0 0 0 0 0 0 0 0 0 0 0 0 0 0 0 0 0 -59 -127 -90 -71 -67 -43 -38 -102 -55 -100 -104 0 0 0 0 0 0 0 0 0 0 0 0 0
-25 0 0 0 0 0 0 0 0 0 0 0 0 0 0 0 0 0 0 0 0 0 0 0 0 0 0 -35 -125 -141 -112 -107 -129 -134 -151 -21 -212 -222 0 0 0 0 0 0 0 0 0 0 0
0 0 0 0 0 0 0 0 0 0 0 0 0 0 0 0 0 0 0 0 0 0 0 0 0 0 0 0 0 0 -148 -155 -200 0 0 0 0 0 0 0 0 0 0 0 0 0 0 0 0
0 0 0 0 0 0 0 0 0 0 0 0 0 0 0 0 0 0 0 0 0 0 0 0 0 0 0 0 0 0 0 0 0 0 0 0 0 0 0 0 0 0 0 0 0 0 0 0 0
0 0 0 0 0 0 0 0 0 0 0 0 0 0 0 0 0 0 0 0 0 0 0 0 0 0 0 0 0 0 0 0 0 0 0 0 0 0 0 0 0 0 0 0 0 0 0 0 0
0 0 0 0 0 0 0 0 0 0 0 0 0 0 0 0 0 0 0 0 0 0 0 0 0 0 0 0 0 0 0 0 0 0 0 0 0 0 0 0 0 0 0 0 0 0 0 0 0
Wind_Speed
28 26 23 23 32 33 49 42 35 34 28 26 17 18 16 18 17 20 9 8 7 8 9 9 10 11 11 11 12 13 14 16 16 16 17 16 15 15 15 18 19 18 18 19 19 19 20 20 20
25 25 23 26 39 48 48 42 37 36 30 24 16 15 18 18 13 9 9 7 9 7 6 8 9 11 11 11 12 12 15 15 16 16 16 17 16 15 15 16 17 17 18 18 18 18 19 20 19
26 25 29 34 42 53 49 42 40 30 22 24 24 17 17 15 12 14 8 8 9 7 6 8 9 10 11 11 11 12 15 15 15 16 16 16 16 16 16 16 17 18 19 19 19 18 18 18 19
26 27 30 41 50 50 40 35 25 30 31 43 40 29 18 15 17 18 7 9 10 8 6 7 9 9 10 10 11 12 14 15 15 15 15 15 16 17 18 18 17 18 18 18 18 18 18 18 18
24 31 41 44 51 44 41 30 29 30 32 44 33 33 27 16 16 13 8 10 12 9 7 6 7 9 9 9 10 11 12 15 14 14 14 14 15 17 17 18 18 19 18 18 18 17 17 17 17
33 33 42 53 52 45 38 33 33 30 30 32 30 29 30 26 23 17 14 13 13 11 9 6 6 7 9 9 8 10 11 13 14 14 13 14 14 15 16 17 17 17 17 17 17 17 17 17 17
40 39 43 50 48 44 40 33 32 37 28 30 26 32 29 28 17 25 19 15 13 12 10 8 5 4 5 7 7 9 10 10 13 14 13 13 14 14 14 15 16 16 16 16 16 16 16 16 16
36 36 46 43 47 43 38 32 25 27 26 18 24 34 32 30 13 10 18 17 13 12 11 9 6 4 2 3 7 8 8 9 9 11 11 11 12 12 12 12 13 14 14 15 15 15 15 15 16
34 47 52 48 43 41 32 35 28 20 22 24 25 29 26 28 18 14 23 17 18 16 12 9 8 6 3 1 4 7 6 7 8 10 10 10 9 9 10 10 11 11 12 13 13 14 14 14 15
40 50 47 44 38 38 33 32 29 27 23 24 22 20 18 30 22 22 18 24 17 15 16 12 11 8 5 2 2 4 5 6 7 7 6 6 7 8 8 9 10 10 10 11 11 12 13 13 13
43 49 44 41 40 32 31 33 30 31 32 24 21 18 17 22 22 18 20 16 15 23 19 20 13 10 7 5 1 1 2 3 5 6 4 5 6 7 7 8 9 9 10 10 11 11 12 12 12
46 51 45 36 38 34 35 31 30 29 30 22 15 13 15 19 22 22 19 22 19 23 28 25 24 13 9 5 3 1 1 1 1 2 3 4 7 6 7 8 9 9 9 9 10 11 11 11 11
52 44 45 40 34 31 31 33 31 26 22 18 16 15 16 17 18 19 17 24 18 19 20 27 29 23 13 8 5 3 2 2 2 3 3 4 6 5 7 8 8 8 9 9 9 10 11 10 10
40 52 41 37 41 35 36 34 30 27 21 19 17 16 17 16 18 17 15 19 21 18 11 13 23 20 12 12 9 5 4 4 5 6 5 5 6 7 8 9 8 9 8 8 9 10 10 12 12
41 48 42 41 42 37 31 37 32 26 23 19 20 19 19 17 15 20 17 15 18 15 10 9 12 23 11 10 8 8 7 6 6 7 6 5 8 11 11 11 11 9 9 10 10 12 13 15 15
43 38 49 42 42 38 29 38 28 25 25 22 19 19 18 19 20 19 20 18 14 14 14 14 10 12 20 10 10 9 9 8 7 7 9 6 9 10 12 13 13 12 12 12 14 15 17 18 18
41 44 48 36 40 32 41 36 30 26 25 25 22 19 18 16 17 18 16 16 13 13 15 14 15 11 11 10 18 13 11 11 10 12 10 8 9 9 11 13 13 13 14 14 15 16 18 19 19
43 42 45 37 38 26 32 34 33 30 31 32 27 25 22 20 17 17 15 13 14 10 11 13 14 13 12 15 13 17 18 14 14 13 10 8 8 8 10 12 13 13 13 14 14 16 18 20 22
31 41 40 33 31 39 33 40 35 30 30 36 33 30 29 26 22 20 17 15 12 13 11 16 15 15 15 17 16 16 17 15 14 14 12 10 10 8 10 11 12 14 15 16 17 19 20 22 23
32 42 39 36 29 30 25 30 31 35 38 33 34 34 34 31 28 23 20 16 14 12 14 14 17 18 16 19 18 18 18 19 17 15 15 14 12 10 10 10 12 15 18 18 20 22 25 25 25
35 41 40 35 30 29 28 33 35 33 39 38 39 39 36 37 38 31 23 17 17 18 13 12 12 15 18 18 17 20 19 20 18 17 17 15 13 13 13 13 13 15 18 20 21 22 25 30 28
31 33 33 19 27 38 31 38 34 32 38 37 36 32 34 35 34 32 28 21 16 21 20 18 16 14 16 18 18 19 19 20 18 17 15 15 14 14 14 14 16 18 20 22 23 23 24 26 31
23 32 28 24 18 23 27 28 28 25 33 36 32 34 28 27 27 26 27 25 19 19 21 22 22 21 20 19 19 22 23 24 23 19 16 16 19 18 18 18 19 20 21 23 24 26 26 27 28
18 25 20 21 25 17 22 23 22 23 32 33 35 34 29 28 26 25 23 22 25 22 20 22 26 27 26 25 26 24 27 25 27 24 21 16 18 20 20 20 21 21 22 23 25 25 27 28 28
20 22 26 27 26 26 22 19 19 15 23 28 28 30 31 27 26 23 24 16 20 19 19 18 22 24 24 25 26 26 25 23 23 22 19 20 20 22 22 21 22 23 24 25 26 28 29 28 29
20 21 26 27 25 24 18 22 19 14 13 12 13 13 14 15 16 19 22 20 21 21 21 21 22 22 23 26 26 24 23 22 22 20 19 19 17 15 15 17 19 22 25 29 29 28 30 29 30
23 19 18 19 18 21 24 20 15 11 9 5 5 7 10 11 13 15 16 17 19 22 28 26 25 25 23 23 23 23 23 21 21 21 21 21 22 22 22 21 24 24 26 28 28 29 30 30 30
3 14 20 20 25 25 26 26 23 19 9 5 4 6 9 10 11 13 14 17 20 23 26 26 25 25 24 23 22 22 20 20 19 18 20 18 20 22 23 26 25 24 23 25 27 29 30 31 31
12 13 15 17 20 25 27 28 22 22 13 10 10 10 10 12 14 16 17 18 20 23 25 26 25 25 25 24 23 21 19 19 19 19 21 22 22 22 22 24 25 25 26 27 30 31 30 30 30
17 13 14 17 20 19 21 24 20 8 6 7 10 10 12 14 16 19 20 22 24 25 25 24 22 21 22 20 18 18 17 18 20 22 22 21 21 21 22 24 26 27 27 28 29 30 29 29 28
Wind_Direction
266 266 262 253 241 241 234 238 240 232 236 242 263 257 253 252 249 254 261 230 164 144 125 115 103 93 86 77 69 67 70 76 64 62 63 65 70 68 65 66 65 59 53 54 54 54 54 52 47
267 261 253 246 238 232 233 232 236 236 236 229 248 258 257 251 268 265 232 224 156 163 141 120 106 95 88 79 74 71 78 75 69 63 65 67 70 71 69 62 59 56 56 55 55 54 54 51 42
265 255 242 239 237 232 233 233 235 244 239 224 238 256 254 254 253 238 248 195 167 165 156 122 109 99 90 82 76 79 84 79 73 67 65 67 69 71 72 68 62 62 62 59 57 56 53 46 37
253 246 246 237 234 234 238 237 247 253 235 231 237 243 249 256 255 251 200 186 183 173 171 129 110 100 89 81 79 84 86 83 76 69 67 66 69 72 74 71 66 66 63 59 56 56 53 46 38
252 242 237 236 235 238 239 244 255 251 238 225 232 232 237 247 266 236 197 186 188 182 175 149 118 102 90 81 79 83 87 87 80 71 68 67 67 71 74 72 72 71 66 61 57 54 49 42 35
241 239 236 232 233 237 241 246 250 250 248 227 230 225 232 242 247 242 220 199 191 187 186 169 130 105 92 82 77 83 87 83 85 75 70 68 68 69 71 72 71 68 63 60 56 52 50 45 35
235 236 236 232 234 236 237 244 247 239 247 236 233 227 229 230 227 231 218 210 193 193 194 194 168 130 100 82 76 83 88 83 86 79 71 69 68 67 67 68 68 67 63 57 53 47 44 42 36
240 243 233 235 232 234 235 243 243 236 244 246 239 229 228 229 213 235 226 214 205 197 198 203 200 181 170 79 81 85 84 88 79 80 70 66 64 62 60 57 57 59 60 58 55 52 48 42 38
240 235 231 230 231 230 235 237 238 241 241 243 245 238 234 217 219 218 230 228 220 218 211 204 209 208 195 106 84 87 76 83 88 88 76 65 50 47 51 48 47 44 46 44 42 45 47 46 42
233 231 231 231 235 230 236 237 233 237 240 243 244 240 221 220 227 224 223 232 231 222 224 221 218 213 208 235 100 89 78 79 86 87 68 43 31 35 37 38 38 36 31 33 37 38 37 43 43
231 229 229 231 232 234 237 238 240 232 237 240 234 222 224 232 238 229 234 219 226 239 234 231 224 220 220 231 180 96 76 76 86 85 56 16 2 6 13 16 18 20 27 17 19 19 26 34 34
229 228 227 232 232 235 234 240 237 238 241 243 233 222 216 232 237 236 231 228 229 240 239 236 231 220 222 215 216 134 49 61 43 49 39 351 333 350 357 359 9 15 25 29 26 22 19 27 32
226 227 228 230 232 235 235 235 239 237 237 236 238 236 225 231 235 242 241 238 238 239 240 240 232 231 228 220 230 245 275 287 321 325 325 338 340 347 345 343 354 13 13 18 21 20 15 16 21
228 223 230 233 229 232 232 237 239 232 234 232 238 244 242 231 234 239 241 245 239 243 201 219 239 238 229 235 235 247 267 286 284 290 304 314 322 329 328 326 334 343 2 9 9 11 7 4 4
225 220 229 230 227 230 235 234 238 228 233 235 239 248 251 248 238 246 247 236 241 242 234 226 226 245 236 227 228 253 267 283 276 288 287 290 306 305 312 313 315 329 340 349 354 353 351 349 350
218 224 218 226 225 228 231 231 231 232 231 236 240 245 253 253 252 255 254 254 249 242 236 248 233 229 249 240 242 257 271 275 272 276 286 273 296 301 301 306 307 315 324 331 333 334 333 334 336
215 215 213 221 220 230 225 229 233 233 237 237 241 245 249 255 258 260 253 248 246 241 247 245 249 219 232 247 259 265 270 272 276 280 279 269 290 294 298 301 304 309 315 321 326 328 330 329 332
211 212 212 219 215 231 222 231 243 239 242 240 245 247 250 255 259 263 266 256 240 235 249 246 243 238 246 261 268 270 273 277 284 286 275 262 283 288 296 300 300 307 314 319 324 325 326 325 326
215 212 214 219 221 223 226 227 234 237 245 243 246 249 250 256 261 264 266 266 258 246 243 250 254 255 255 266 265 265 269 275 278 282 283 274 274 276 289 295 299 302 307 312 315 318 320 321 323
217 210 213 215 228 224 232 238 247 251 246 248 247 251 252 256 259 265 264 262 258 251 247 248 254 258 255 261 267 268 273 275 278 276 284 284 274 274 281 291 296 300 304 308 310 311 312 315 319
217 213 211 220 225 236 235 235 238 244 234 241 244 250 253 254 254 261 268 254 260 260 250 244 240 245 253 258 263 271 274 278 279 280 279 281 277 276 281 286 294 301 306 309 313 317 312 310 315
212 210 209 219 230 230 240 239 243 249 236 240 248 252 251 252 256 259 268 258 253 260 263 265 264 257 258 261 259 262 267 269 272 273 279 282 282 279 281 288 294 298 304 307 310 316 316 316 311
214 206 209 219 244 234 235 242 249 251 249 251 255 249 256 259 258 263 272 264 249 258 263 264 268 267 266 261 264 268 269 271 274 273 275 277 279 284 287 291 295 297 302 306 309 311 314 315 314
223 205 212 227 232 243 234 238 248 254 245 245 244 243 251 256 260 267 277 275 263 266 270 272 269 270 273 276 272 273 273 276 280 277 275 277 284 287 292 295 297 301 303 308 311 313 313 313 314
209 201 215 222 230 232 235 239 250 272 250 244 245 242 246 256 263 272 275 283 270 266 272 276 276 275 276 273 272 274 276 277 277 280 278 277 281 286 289 297 300 301 302 305 308 309 311 311 311
207 220 226 225 228 229 241 248 252 269 274 271 257 257 264 269 276 276 277 281 276 277 280 283 281 281 280 279 279 279 279 277 276 274 277 281 279 284 289 297 304 305 304 304 307 309 308 310 309
216 231 249 236 243 239 242 256 268 269 272 287 260 264 270 276 285 292 297 296 291 286 280 282 285 284 283 283 285 284 283 278 275 278 282 285 288 290 293 294 302 301 302 304 306 308 307 309 310
266 248 244 249 239 243 244 247 254 248 257 268 293 285 287 300 313 319 318 311 302 297 293 289 286 285 286 287 285 284 282 284 283 278 278 284 288 289 295 297 300 307 309 307 307 307 308 307 307
265 268 268 260 257 250 246 252 264 252 256 269 278 282 295 307 313 313 317 317 308 303 298 294 289 285 285 286 287 285 284 283 284 284 287 286 290 291 292 296 300 305 308 308 306 306 307 307 307
256 268 270 258 257 264 261 262 286 242 268 280 281 299 307 309 311 309 307 304 300 301 302 303 301 296 292 292 291 287 285 284 284 284 286 290 291 294 295 297 299 303 307 309 309 309 308 308 308